Weather History for Gjoa Haven, NU

Change the Weather History Date:

Thursday, January 16, 2014

  Actual Average Record
Temperature  
Mean Temperature -32 °F -  
Max Temperature -27 °F -21 °F -4 °F (2009)
Min Temperature -38 °F -30 °F -40 °F (1998)
Degree Days  
Heating Degree Days 98    
Moisture  
Dew Point -38 °F    
Average Humidity 69    
Maximum Humidity 75    
Minimum Humidity 61    
Precipitation  
Precipitation 0.00 in - - ()
Sea Level Pressure  
Sea Level Pressure 29.80 in    
Wind  
Wind Speed 10 mph ()    
Max Wind Speed 17 mph    
Max Gust Speed -    
Visibility 3.1 miles    
Events Snow    
Averages and records for this station are not official NWS values.
T = Trace of Precipitation, MM = Missing Value Source: Averaged Metar Reports

Daily Weather History Graph

Daily Weather History Graph

Search for Another Location

Airport:

Trip Planner

Search our weather history database for the weather conditions in past years. The results will help you decide how hot, cold, wet, or windy it might be!

Date:

Astronomy

Jan. 16, 2014 Rise Set
Actual Time 11:07 AM CST 1:59 PM CST
Civil Twilight 9:20 AM CST 3:46 PM CST
Nautical Twilight 7:58 AM CST 5:08 PM CST
Astronomical Twilight 6:48 AM CST 6:18 PM CST
Moon 4:20 PM CST (1/16) 9:40 AM CST (1/16)
Length of Visible Light 6h 25m
Length of Day
2h 52m
Full, 100% of the Moon is Illuminated
Jan 16
Full
Jan 23
Last Quarter
Jan 30
New
Feb 6
First Quarter
Feb 14
Full

Hourly Weather History & Observations

Time (CST) Temp. Windchill Dew Point Humidity Pressure Visibility Wind Dir Wind Speed Gust Speed Precip Events Conditions
12:00 AM -31.0 °F -53.4 °F -38.2 °F 68% 29.70 in 3.0 mi SSE 9.2 mph - N/A   Haze
1:00 AM -31.0 °F -51.9 °F -38.2 °F 68% 29.70 in 3.0 mi ESE 8.1 mph - N/A   Haze
2:00 AM -32.8 °F -52.4 °F -38.2 °F 75% 29.70 in 3.0 mi East 6.9 mph - N/A   Haze
3:00 AM -34.6 °F -54.6 °F -41.8 °F 68% 29.69 in 4.0 mi ENE 6.9 mph - N/A   Haze
4:00 AM -34.6 °F -57.8 °F -41.8 °F 68% 29.70 in 4.0 mi NE 9.2 mph - N/A   Haze
5:00 AM -34.6 °F -54.6 °F -41.8 °F 68% 29.71 in 4.0 mi ENE 6.9 mph - N/A   Haze
6:00 AM -34.6 °F -56.3 °F -41.8 °F 68% 29.71 in 4.0 mi ENE 8.1 mph - N/A   Haze
7:00 AM -34.6 °F -56.3 °F -41.8 °F 68% 29.72 in 4.0 mi NE 8.1 mph - N/A   Haze
8:00 AM -36.4 °F -58.5 °F -43.6 °F 67% 29.72 in 4.0 mi NNE 8.1 mph - N/A   Haze
9:00 AM -34.6 °F -62.7 °F -41.8 °F 68% 29.73 in 4.0 mi NE 13.8 mph - N/A   Haze
10:00 AM -38.2 °F -66.2 °F -45.4 °F 67% 29.73 in 4.0 mi NE 12.7 mph - N/A   Haze
11:00 AM -36.4 °F -61.5 °F -45.4 °F 61% 29.75 in 4.0 mi NNE 10.4 mph - N/A   Haze
12:00 PM -36.4 °F -60.1 °F -43.6 °F 67% 29.75 in 4.0 mi NNE 9.2 mph - N/A   Haze
1:00 PM -36.4 °F -62.7 °F -43.6 °F 67% 29.76 in 4.0 mi NNE 11.5 mph - N/A   Haze
2:00 PM -36.4 °F -63.9 °F -43.6 °F 67% 29.78 in 3.0 mi NNE 12.7 mph - N/A   Haze
3:00 PM -31.0 °F -54.7 °F -38.2 °F 68% 29.79 in 3.0 mi NNE 10.4 mph - N/A   Haze
3:44 PM -29.2 °F -49.7 °F -36.4 °F 68% 29.80 in 2.5 mi North 8.1 mph - N/A   Haze
3:51 PM -31.0 °F -53.4 °F -38.2 °F 68% 29.80 in 2.0 mi NNE 9.2 mph - N/A   Haze
3:54 PM -31.0 °F -51.9 °F -38.2 °F 68% 29.80 in 2.5 mi North 8.1 mph - N/A   Haze
4:00 PM -31.0 °F -53.4 °F -38.2 °F 68% 29.80 in 3.0 mi North 9.2 mph - N/A   Haze
5:00 PM -29.2 °F -49.7 °F -34.6 °F 75% 29.82 in 3.0 mi North 8.1 mph - N/A   Haze
6:00 PM -31.0 °F -59.1 °F -38.2 °F 68% 29.84 in 4.0 mi NNW 15.0 mph - N/A   Haze
6:48 PM -29.2 °F -53.7 °F -36.4 °F 68% 29.84 in 2.5 mi North 11.5 mph - N/A   Haze
6:58 PM -29.2 °F -52.5 °F -36.4 °F 68% 29.84 in 4.0 mi North 10.4 mph - N/A   Haze
8:00 PM -27.4 °F -52.5 °F -34.6 °F 69% 29.84 in 4.0 mi North 12.7 mph - N/A   Haze
8:37 PM -29.2 °F -52.5 °F -34.6 °F 75% 29.85 in 2.5 mi North 10.4 mph - N/A   Haze
8:39 PM -29.2 °F -55.8 °F -34.6 °F 75% 29.85 in 2.5 mi North 13.8 mph - N/A Snow Light Snow
8:40 PM -29.2 °F -55.8 °F -34.6 °F 75% 29.85 in 2.2 mi North 13.8 mph - N/A Snow Light Snow
8:52 PM -27.4 °F -55.3 °F -34.6 °F 69% 29.85 in 2.5 mi North 16.1 mph - N/A Snow Light Snow
8:58 PM -27.4 °F -53.5 °F -34.6 °F 69% 29.85 in 2.5 mi North 13.8 mph - N/A   Haze
9:00 PM -27.4 °F -53.5 °F -34.6 °F 69% 29.85 in 2.5 mi North 13.8 mph - N/A   Haze
9:06 PM -27.4 °F -56.1 °F -34.6 °F 69% 29.85 in 3.0 mi North 17.3 mph - N/A   Haze
9:14 PM -27.4 °F -55.3 °F -34.6 °F 69% 29.85 in 2.5 mi North 16.1 mph - N/A Snow Light Snow
9:18 PM -27.4 °F -54.5 °F -34.6 °F 69% 29.85 in 2.2 mi North 15.0 mph - N/A Snow Light Snow
10:00 PM -29.2 °F -57.6 °F -36.4 °F 68% 29.85 in 2.5 mi North 16.1 mph - N/A   Haze
10:42 PM -29.2 °F -57.6 °F -36.4 °F 68% 29.85 in 2.5 mi North 16.1 mph - N/A Snow Light Snow
10:43 PM -29.2 °F -57.6 °F -36.4 °F 68% 29.85 in 2.0 mi North 16.1 mph - N/A Snow Light Snow
11:00 PM -29.2 °F -53.7 °F -34.6 °F 75% 29.86 in 1.8 mi North 11.5 mph - N/A Snow Light Snow
11:08 PM -29.2 °F -54.8 °F -36.4 °F 68% 29.86 in 2.5 mi North 12.7 mph - N/A Snow Light Snow
11:10 PM -29.2 °F -54.8 °F -36.4 °F 68% 29.86 in 3.0 mi North 12.7 mph - N/A Snow Light Snow
11:15 PM -29.2 °F -55.8 °F -34.6 °F 75% 29.86 in 3.0 mi North 13.8 mph - N/A   Haze